When you browse on this site, cookies collect data to enhance your experience and personalize the content and advertising you see.
Visit our Privacy Policy to learn more. By continuing to use the site, you agree to this use of cookies and data.
  • In Hungary
  • List of Countries
  • For 7 days
  • Water Temperature
  • Weather Map
  • News
  • Weather Widgets
  • user-avatar
    Login

    Hourly Weather Parsow

    Today, 28 May, Thursday

    Time Temperature Precipitation Wind Pressure Humidity
    00:00 +10°C° 0 mm 3 mps 769 mmHg 88%
    01:00 +10°C° 0 mm 3 mps 769 mmHg 87%
    02:00 +9°C° 0 mm 3 mps 769 mmHg 88%
    03:00 +8°C° 0 mm 3 mps 769 mmHg 90%
    04:00 +8°C° 0 mm 3 mps 769 mmHg 91%
    05:00 +9°C° 0 mm 3 mps 769 mmHg 87%
    06:00 +11°C° 0 mm 4 mps 769 mmHg 82%
    07:00 +12°C° 0 mm 4 mps 769 mmHg 78%
    08:00 +13°C° 0 mm 4 mps 769 mmHg 73%
    09:00 +14°C° 0 mm 5 mps 769 mmHg 68%
    10:00 +16°C° 0 mm 5 mps 769 mmHg 63%
    11:00 +16°C° 0.1 mm 5 mps 769 mmHg 61%
    12:00 +17°C° 0.1 mm 6 mps 769 mmHg 59%
    13:00 +17°C° 0.1 mm 6 mps 769 mmHg 57%
    14:00 +17°C° 0.1 mm 6 mps 768 mmHg 60%
    15:00 +16°C° 0.1 mm 7 mps 768 mmHg 62%
    16:00 +16°C° 0.1 mm 7 mps 768 mmHg 65%
    17:00 +15°C° 0 mm 6 mps 768 mmHg 68%
    18:00 +14°C° 0 mm 5 mps 769 mmHg 71%
    19:00 +12°C° 0 mm 4 mps 769 mmHg 74%
    20:00 +11°C° 0 mm 4 mps 769 mmHg 78%
    21:00 +8°C° 0 mm 4 mps 769 mmHg 83%
    22:00 +8°C° 0 mm 3 mps 770 mmHg 87%
    23:00 +7°C° 0 mm 3 mps 770 mmHg 88%

    Tomorrow, 29 May, Friday

    Time Temperature Precipitation Wind Pressure Humidity
    00:00 +7°C° 0 mm 3 mps 770 mmHg 89%
    01:00 +5°C° 0 mm 3 mps 770 mmHg 90%
    02:00 +5°C° 0 mm 3 mps 770 mmHg 91%
    03:00 +6°C° 0 mm 2 mps 770 mmHg 91%
    04:00 +6°C° 0 mm 2 mps 770 mmHg 92%
    05:00 +8°C° 0 mm 3 mps 770 mmHg 83%
    06:00 +10°C° 0 mm 3 mps 770 mmHg 73%
    07:00 +12°C° 0 mm 4 mps 770 mmHg 63%
    08:00 +13°C° 0 mm 4 mps 770 mmHg 59%
    09:00 +14°C° 0 mm 4 mps 770 mmHg 55%
    10:00 +17°C° 0 mm 4 mps 770 mmHg 51%
    11:00 +16°C° 0 mm 5 mps 770 mmHg 50%
    12:00 +17°C° 0 mm 5 mps 769 mmHg 49%
    13:00 +17°C° 0 mm 5 mps 769 mmHg 49%
    14:00 +17°C° 0 mm 5 mps 769 mmHg 50%
    15:00 +17°C° 0 mm 5 mps 768 mmHg 51%
    16:00 +16°C° 0 mm 5 mps 768 mmHg 52%
    17:00 +15°C° 0 mm 4 mps 768 mmHg 58%
    18:00 +14°C° 0 mm 4 mps 768 mmHg 64%
    19:00 +13°C° 0 mm 3 mps 768 mmHg 71%
    20:00 +11°C° 0 mm 3 mps 768 mmHg 75%
    21:00 +10°C° 0 mm 2 mps 768 mmHg 80%
    22:00 +8°C° 0 mm 2 mps 768 mmHg 84%
    23:00 +8°C° 0 mm 2 mps 768 mmHg 86%

    Day after tomorrow, 30 May, Saturday

    Time Temperature Precipitation Wind Pressure Humidity
    00:00 +7°C° 0 mm 2 mps 767 mmHg 88%
    01:00 +7°C° 0 mm 2 mps 767 mmHg 89%
    02:00 +8°C° 0 mm 2 mps 767 mmHg 88%
    03:00 +8°C° 0 mm 2 mps 767 mmHg 86%
    04:00 +9°C° 0 mm 2 mps 767 mmHg 85%
    05:00 +10°C° 0 mm 3 mps 767 mmHg 78%
    06:00 +11°C° 0 mm 3 mps 767 mmHg 72%
    07:00 +12°C° 0 mm 4 mps 767 mmHg 65%
    08:00 +13°C° 0 mm 4 mps 766 mmHg 61%
    09:00 +14°C° 0 mm 5 mps 766 mmHg 58%
    10:00 +15°C° 0 mm 6 mps 766 mmHg 54%
    11:00 +16°C° 0 mm 6 mps 766 mmHg 53%
    12:00 +16°C° 0 mm 6 mps 765 mmHg 53%
    13:00 +16°C° 0 mm 6 mps 765 mmHg 53%
    14:00 +16°C° 0 mm 6 mps 765 mmHg 56%
    15:00 +16°C° 0 mm 6 mps 765 mmHg 58%
    16:00 +15°C° 0 mm 6 mps 765 mmHg 61%
    17:00 +14°C° 0 mm 5 mps 765 mmHg 64%
    18:00 +13°C° 0 mm 5 mps 765 mmHg 68%
    19:00 +12°C° 0 mm 4 mps 765 mmHg 71%
    20:00 +12°C° 0 mm 4 mps 765 mmHg 74%
    21:00 +11°C° 0 mm 4 mps 765 mmHg 77%
    22:00 +10°C° 0 mm 4 mps 765 mmHg 81%
    23:00 +10°C° 0 mm 4 mps 765 mmHg 81%

    31 May, Sunday

    Time Temperature Precipitation Wind Pressure Humidity
    00:00 +10°C° 0 mm 4 mps 765 mmHg 82%
    01:00 +10°C° 0 mm 4 mps 764 mmHg 82%
    02:00 +10°C° 0 mm 4 mps 764 mmHg 84%
    03:00 +10°C° 0 mm 4 mps 764 mmHg 85%
    04:00 +10°C° 0 mm 3 mps 764 mmHg 87%
    05:00 +11°C° 0 mm 4 mps 764 mmHg 84%
    06:00 +10°C° 0 mm 5 mps 764 mmHg 82%
    07:00 +12°C° 0 mm 5 mps 764 mmHg 80%
    08:00 +14°C° 0 mm 5 mps 764 mmHg 74%
    09:00 +16°C° 0 mm 6 mps 764 mmHg 69%
    10:00 +17°C° 0 mm 6 mps 764 mmHg 63%
    11:00 +19°C° 0 mm 6 mps 764 mmHg 63%
    12:00 +19°C° 0 mm 6 mps 763 mmHg 62%
    13:00 +19°C° 0 mm 6 mps 763 mmHg 61%
    14:00 +19°C° 0 mm 6 mps 763 mmHg 62%
    15:00 +19°C° 0 mm 6 mps 763 mmHg 63%
    16:00 +19°C° 0 mm 6 mps 763 mmHg 64%
    17:00 +17°C° 0 mm 6 mps 763 mmHg 67%
    18:00 +16°C° 0 mm 5 mps 763 mmHg 71%
    19:00 +15°C° 0 mm 5 mps 763 mmHg 75%
    20:00 +14°C° 0 mm 4 mps 764 mmHg 78%
    21:00 +12°C° 0 mm 4 mps 764 mmHg 82%
    22:00 +11°C° 0 mm 4 mps 764 mmHg 86%
    23:00 +10°C° 0 mm 3 mps 764 mmHg 88%

    1 June, Monday

    Time Temperature Precipitation Wind Pressure Humidity
    00:00 +10°C° 0 mm 3 mps 764 mmHg 90%
    01:00 +9°C° 0 mm 3 mps 764 mmHg 92%
    02:00 +9°C° 0 mm 3 mps 764 mmHg 91%
    03:00 +9°C° 0 mm 3 mps 764 mmHg 91%
    04:00 +9°C° 0 mm 2 mps 764 mmHg 90%
    05:00 +11°C° 0 mm 3 mps 764 mmHg 85%
    06:00 +13°C° 0 mm 3 mps 764 mmHg 80%
    07:00 +14°C° 0 mm 3 mps 764 mmHg 75%
    08:00 +17°C° 0 mm 3 mps 764 mmHg 69%
    09:00 +19°C° 0 mm 3 mps 764 mmHg 64%
    10:00 +21°C° 0 mm 3 mps 764 mmHg 58%
    11:00 +22°C° 0 mm 3 mps 764 mmHg 55%
    12:00 +24°C° 0 mm 3 mps 764 mmHg 52%
    13:00 +24°C° 0 mm 3 mps 763 mmHg 49%
    14:00 +24°C° 0 mm 3 mps 763 mmHg 50%
    15:00 +24°C° 0 mm 3 mps 763 mmHg 51%
    16:00 +23°C° 0 mm 4 mps 763 mmHg 52%
    17:00 +22°C° 0 mm 4 mps 763 mmHg 60%
    18:00 +21°C° 0 mm 3 mps 763 mmHg 67%
    19:00 +19°C° 0 mm 3 mps 762 mmHg 74%
    20:00 +18°C° 0 mm 3 mps 763 mmHg 77%
    21:00 +16°C° 0 mm 3 mps 763 mmHg 80%
    22:00 +14°C° 0 mm 3 mps 763 mmHg 83%
    23:00 +13°C° 0 mm 3 mps 763 mmHg 86%

    2 June, Tuesday

    Time Temperature Precipitation Wind Pressure Humidity
    00:00 +12°C° 0 mm 3 mps 763 mmHg 89%
    01:00 +13°C° 0 mm 2 mps 763 mmHg 92%
    02:00 +12°C° 0 mm 2 mps 762 mmHg 93%
    03:00 +12°C° 0 mm 2 mps 762 mmHg 93%
    04:00 +10°C° 0 mm 2 mps 762 mmHg 94%
    05:00 +12°C° 0 mm 3 mps 762 mmHg 88%
    06:00 +14°C° 0 mm 3 mps 762 mmHg 82%
    07:00 +17°C° 0 mm 3 mps 762 mmHg 75%
    08:00 +18°C° 0 mm 3 mps 762 mmHg 68%
    09:00 +20°C° 0 mm 4 mps 762 mmHg 62%
    10:00 +21°C° 0 mm 4 mps 762 mmHg 55%
    11:00 +22°C° 0 mm 4 mps 762 mmHg 53%
    12:00 +23°C° 0 mm 4 mps 761 mmHg 51%
    13:00 +23°C° 0 mm 4 mps 761 mmHg 50%
    14:00 +23°C° 0 mm 4 mps 760 mmHg 51%
    15:00 +23°C° 0 mm 4 mps 760 mmHg 53%
    16:00 +23°C° 0 mm 4 mps 760 mmHg 55%
    17:00 +22°C° 0 mm 3 mps 759 mmHg 60%
    18:00 +21°C° 0 mm 3 mps 759 mmHg 65%
    19:00 +20°C° 0 mm 3 mps 759 mmHg 71%
    20:00 +18°C° 0 mm 3 mps 759 mmHg 73%
    21:00 +17°C° 0 mm 3 mps 759 mmHg 76%
    22:00 +14°C° 0 mm 3 mps 759 mmHg 78%
    23:00 +14°C° 0 mm 3 mps 759 mmHg 82%
    Show more